Powrót do katalogu

STARLINK-11407

AktywnyŁącznośćVLEO
NORAD 61939·PAYLOAD·🇺🇸 United States

Wystrzelony Nov 14, 2024 z Vandenberg Space Force Base

Loading…

Następne Przeloty (najbliższe 24 godziny)

TLE

ŚwieżeSource: CelesTrak SupGP

Epoka: Sep 14, 2026, 20:51 UTC

1 61939C 24209A   26257.86923611 -.00139740  00000+0 -11490-2 0  2572
2 61939  53.1574 158.4512 0001050  89.6623 275.5598 15.69823238    10

Śledź STARLINK-11407 w czasie rzeczywistym z AllMySat

Download on the App Store